Wind_Speed
22 22 25 26 25 23 27 28 29 31 31 32 32 31 31 35 34 35 35 28 26 23 21 25 25 27 24 26 26 24 24 25 25 27 27 28 30 33 32 33 32 32 35 33 33
24 22 25 27 28 27 27 29 30 33 34 32 40 38 36 36 33 32 31 28 28 29 29 30 30 28 29 27 29 28 27 24 24 27 28 34 34 36 35 35 32 30 33 34 36
24 25 24 25 26 27 33 32 31 31 35 34 31 32 34 36 36 34 34 34 32 33 33 33 32 30 31 30 26 28 31 30 29 29 32 33 38 34 32 33 34 35 35 36 39
27 27 28 28 28 30 29 34 37 39 35 36 37 36 35 35 39 38 34 31 32 33 32 33 33 32 32 33 30 30 28 29 32 32 30 35 35 35 34 35 37 37 39 39 42
26 27 28 29 31 32 33 33 37 38 37 40 39 38 37 37 35 36 36 37 37 37 37 31 34 36 36 38 37 33 32 34 32 30 31 35 35 34 31 30 33 35 37 39 39
28 29 28 28 28 27 28 30 32 37 41 41 41 40 42 43 41 41 39 41 42 38 38 39 39 42 41 41 42 40 39 37 36 33 31 37 37 35 33 30 34 35 37 38 39
26 27 27 27 27 27 26 26 26 26 28 30 34 34 34 38 37 38 41 42 41 40 43 44 40 41 43 45 45 43 44 46 41 40 41 40 42 40 38 37 39 39 40 43 43
27 28 28 28 28 27 26 25 25 26 26 27 28 29 31 31 33 35 37 37 39 41 47 44 45 44 45 46 47 51 51 50 46 43 43 43 43 44 42 42 43 42 43 43 44
28 28 28 30 30 28 27 27 26 26 25 26 26 27 28 29 32 33 35 36 36 38 40 44 45 45 44 46 48 48 48 48 45 40 39 40 44 45 45 45 46 46 45 46 44
34 31 30 30 32 32 32 32 31 31 30 31 31 31 31 31 32 33 34 36 38 41 44 47 48 49 48 49 49 49 48 48 49 46 44 42 44 46 48 46 45 43 41 40 43
30 31 31 31 31 33 35 35 36 36 36 36 37 38 38 38 39 39 41 42 44 45 47 50 50 50 51 53 51 50 48 49 50 49 46 44 45 45 44 43 41 42 43 44 43
30 30 31 32 33 34 37 39 38 37 37 38 39 38 40 42 43 44 44 44 45 48 51 53 51 52 54 56 53 52 51 52 52 53 51 49 48 46 45 44 45 46 46 46 48
35 34 34 36 38 39 38 38 38 39 41 41 42 42 42 43 43 44 44 45 46 47 50 51 50 53 55 55 53 55 54 55 54 54 54 54 52 50 51 48 47 48 48 48 46
40 40 39 40 41 41 40 40 40 42 42 43 44 44 45 46 45 46 47 47 48 50 52 52 52 55 56 57 55 55 56 55 55 55 54 54 52 51 52 53 49 49 49 52 52
45 44 43 44 45 43 43 44 45 45 45 46 47 47 47 48 49 49 49 49 49 50 51 50 51 54 56 56 55 56 57 57 56 54 51 52 56 49 51 52 51 48 49 50 53
46 46 45 48 50 48 46 47 47 49 48 47 48 48 47 46 48 50 50 50 49 50 51 50 49 50 52 54 53 55 56 57 57 56 55 54 55 58 57 59 60 60 62 64 62
50 50 51 51 51 50 50 52 52 51 50 50 51 51 51 51 49 48 48 48 49 49 50 49 48 48 49 51 51 51 55 57 58 56 57 59 59 55 59 65 68 70 68 64 63
54 53 53 56 56 55 55 57 57 56 55 55 55 54 54 53 52 51 50 49 50 51 51 50 49 47 48 49 51 50 55 58 60 58 58 60 58 61 66 68 68 68 69 70 72
57 57 60 63 62 61 62 64 64 63 62 61 61 59 58 57 56 54 54 53 54 53 53 53 53 51 50 50 52 52 53 54 56 55 57 56 56 58 61 63 63 65 67 69 71
60 63 64 65 66 66 67 70 70 69 69 67 66 63 62 61 60 59 58 57 58 57 57 58 57 57 57 57 58 59 60 61 61 61 62 60 61 61 65 66 67 68 68 68 68
43 47 52 60 66 69 70 72 73 73 72 71 70 68 65 64 64 64 62 62 62 63 62 62 61 61 61 61 62 64 65 67 68 68 69 69 68 69 71 73 74 75 75 76 76
49 52 53 56 58 59 63 69 75 77 76 75 75 73 72 70 69 68 68 67 67 67 67 67 67 68 70 70 71 71 72 73 74 74 74 74 71 74 75 77 79 79 80 80 82
56 59 63 64 65 65 66 67 67 71 77 79 79 79 78 77 75 73 71 71 71 72 71 72 69 69 71 74 75 76 75 76 76 77 77 78 77 79 80 82 83 85 86 87 88
47 45 49 56 61 66 68 70 71 71 72 73 76 81 81 80 78 75 75 74 74 74 74 75 73 72 72 73 75 75 76 78 79 81 82 83 84 85 87 87 88 90 91 92 94
39 34 33 37 41 46 55 62 67 68 70 71 72 72 76 82 81 78 77 78 77 77 76 77 76 76 76 77 78 79 81 83 84 84 86 86 88 88 90 91 92 94 95 97 98
33 27 26 29 32 33 33 34 46 59 65 68 70 71 69 71 76 78 76 75 74 74 75 77 78 79 82 82 82 83 83 83 85 87 89 89 90 92 93 93 91 89 86 85 81
34 35 34 34 32 33 36 36 39 40 46 57 65 68 70 72 74 74 78 80 80 79 82 82 83 83 84 83 84 84 84 86 89 91 91 92 93 94 90 86 81 79 77 73 68
Wind_Direction
204 209 221 225 224 222 217 214 216 224 223 224 226 229 230 231 234 232 238 241 247 245 247 259 264 257 255 250 251 254 262 264 262 266 260 254 252 252 253 251 248 254 241 252 255
219 218 226 229 234 225 223 222 230 229 227 234 227 235 239 238 237 236 241 244 252 254 260 262 263 263 254 252 251 253 259 248 262 272 269 264 262 252 254 261 264 263 268 260 260
225 228 228 223 226 226 229 229 233 231 229 234 237 237 238 239 242 244 250 256 254 257 259 258 262 264 251 252 255 255 250 258 268 275 275 276 268 269 273 275 274 269 269 272 272
228 229 233 236 237 236 233 234 234 235 231 237 240 241 246 248 244 247 248 250 249 254 256 260 260 258 259 253 255 257 255 257 261 266 281 277 280 272 271 273 265 266 263 267 270
227 228 230 236 240 241 240 238 237 238 238 239 242 245 245 246 245 245 250 254 252 258 260 258 257 259 263 261 257 260 258 254 264 273 276 278 281 280 276 275 269 268 265 260 258
232 235 237 240 240 239 240 242 242 242 242 242 243 246 246 250 250 251 255 257 258 253 254 259 264 265 265 267 265 262 262 261 263 270 269 273 269 267 266 260 259 261 265 267 268
236 237 240 242 239 238 237 238 241 241 239 241 241 243 246 247 247 250 252 253 254 256 256 260 260 261 263 264 264 263 264 266 268 270 270 268 265 263 263 263 264 265 268 267 266
241 247 247 245 241 241 240 240 241 243 244 244 245 247 248 248 249 247 252 255 254 257 255 256 260 264 260 259 261 267 269 271 271 270 270 270 266 265 262 264 265 267 269 269 268
249 254 256 254 246 243 242 242 243 244 245 248 248 249 250 250 251 252 255 258 258 258 257 258 259 260 263 264 266 268 271 274 274 268 266 260 259 262 263 265 267 268 268 269 271
250 254 258 258 252 248 247 246 245 245 246 250 250 250 251 252 254 256 258 259 260 261 260 260 261 264 267 268 268 272 272 271 271 268 266 265 260 258 257 258 264 268 268 268 267
255 256 258 259 258 255 253 251 249 249 252 254 254 254 255 256 256 256 258 260 261 262 262 262 263 266 267 266 268 268 270 270 270 269 267 265 262 260 261 261 260 263 266 269 271
256 256 255 256 255 255 256 255 255 256 256 257 259 260 259 259 260 260 261 260 261 263 263 263 266 267 266 267 268 267 264 266 268 268 267 267 263 263 261 260 262 269 271 272 271
256 257 256 257 258 257 258 258 258 258 259 260 260 260 261 262 262 260 259 261 261 262 263 265 266 264 264 266 266 265 264 263 265 267 268 270 267 266 266 266 265 269 269 269 274
254 256 256 257 258 257 257 258 257 257 258 260 262 261 261 261 262 261 260 262 264 265 264 265 265 265 264 266 266 265 264 264 263 264 265 264 265 268 270 270 271 268 269 271 272
253 255 255 255 256 256 258 259 258 259 259 259 260 262 262 264 264 263 262 263 266 265 263 264 264 264 265 266 267 266 266 264 265 266 265 264 264 271 264 265 269 265 264 267 270
255 256 257 258 258 258 257 259 259 259 259 260 261 261 261 263 263 264 265 266 266 264 262 262 262 262 264 266 266 265 265 264 264 264 265 265 263 256 259 262 264 267 270 273 272
259 257 256 257 259 259 260 260 260 261 262 262 263 263 262 262 265 266 266 266 266 264 264 264 261 260 262 263 264 264 265 266 266 267 264 262 264 266 264 265 267 269 272 273 272
258 259 259 258 258 259 259 260 260 261 262 263 265 265 264 263 263 263 264 264 263 263 263 262 260 259 261 264 265 265 266 268 269 269 267 266 267 265 264 264 266 268 269 270 271
262 260 260 259 258 259 259 260 261 262 262 263 264 264 265 263 262 262 261 261 261 261 261 261 260 260 260 262 265 267 267 267 269 270 270 271 272 270 271 270 269 269 269 269 270
266 264 263 261 261 260 259 259 261 262 262 262 262 261 262 262 261 260 261 261 261 260 258 258 258 260 261 261 263 265 266 267 268 268 269 268 268 269 270 271 271 271 272 272 272
271 268 266 264 262 259 258 259 259 259 260 260 261 261 260 259 259 259 260 260 261 261 260 259 258 259 261 263 264 266 267 268 268 269 269 269 270 270 271 272 273 273 274 274 275
278 273 271 267 264 261 259 257 257 257 257 257 258 258 258 257 257 258 259 259 260 260 260 260 258 259 261 263 265 266 268 269 269 269 270 272 272 272 272 273 273 273 273 274 274
282 272 266 263 260 259 257 256 257 255 253 252 253 253 254 255 256 257 257 259 260 261 261 262 262 260 262 262 263 266 267 268 268 269 270 271 272 272 272 273 273 275 275 275 275
291 281 269 263 260 258 257 255 253 254 254 254 253 253 254 254 254 254 254 255 257 259 262 263 262 262 261 261 262 263 264 266 268 270 272 273 274 273 274 274 275 275 276 276 276
300 293 284 275 272 269 264 259 254 254 253 253 253 255 254 253 254 256 256 257 257 257 257 259 260 260 260 261 262 263 265 266 267 269 272 273 274 276 277 278 278 278 277 277 277
293 300 288 286 280 281 277 277 260 254 252 254 252 249 251 253 252 254 253 253 254 256 257 258 259 261 261 262 263 264 264 266 267 270 273 274 275 277 279 279 278 277 277 278 278
288 290 285 281 279 276 276 276 273 270 261 254 253 254 256 255 252 252 253 253 252 252 255 256 257 257 259 261 262 263 265 268 271 272 273 275 276 277 277 276 275 273 273 273 274
Height
10850 10853 10856 10858 10862 10865 10869 10873 10876 10880 10883 10886 10889 10893 10896 10900 10901 10903 10906 10909 10911 10913 10915 10916 10917 10917 10919 10921 10923 10925 10927 10927 10928 10927 10928 10928 10928 10928 10927 10928 10932 10936 10938 10937 10937
10848 10851 10853 10856 10859 10862 10866 10869 10872 10875 10879 10881 10885 10889 10892 10895 10897 10899 10902 10904 10907 10908 10909 10910 10911 10913 10913 10915 10918 10920 10922 10922 10923 10922 10922 10920 10921 10920 10924 10928 10935 10936 10933 10935 10936
10845 10848 10851 10853 10856 10859 10862 10864 10867 10870 10874 10877 10880 10883 10886 10889 10892 10894 10896 10899 10901 10902 10902 10904 10905 10906 10908 10910 10913 10915 10917 10918 10918 10917 10917 10917 10913 10925 10929 10932 10931 10933 10934 10935 10933
10841 10844 10847 10850 10853 10855 10857 10860 10863 10865 10869 10872 10875 10877 10880 10883 10885 10888 10890 10892 10894 10896 10896 10898 10898 10899 10900 10904 10907 10909 10912 10914 10911 10915 10915 10908 10912 10918 10923 10923 10923 10922 10923 10924 10925
10836 10839 10842 10845 10848 10850 10852 10854 10857 10860 10862 10865 10868 10871 10874 10876 10879 10881 10884 10886 10888 10889 10890 10890 10891 10892 10893 10896 10901 10904 10906 10907 10907 10913 10910 10906 10910 10912 10916 10916 10914 10914 10913 10913 10914
10832 10835 10837 10840 10842 10844 10846 10848 10851 10853 10856 10858 10861 10864 10866 10868 10871 10874 10876 10877 10879 10882 10883 10883 10884 10884 10885 10888 10893 10896 10898 10899 10905 10905 10904 10901 10904 10905 10905 10907 10903 10903 10903 10903 10904
10827 10830 10832 10835 10837 10839 10841 10843 10845 10847 10849 10851 10854 10857 10859 10859 10864 10866 10868 10869 10871 10873 10874 10875 10876 10877 10879 10879 10883 10886 10891 10891 10899 10898 10896 10895 10895 10896 10897 10898 10896 10897 10896 10895 10896
10823 10826 10828 10830 10832 10834 10835 10838 10840 10842 10843 10845 10848 10850 10852 10855 10857 10858 10859 10861 10863 10864 10865 10866 10867 10868 10870 10871 10873 10876 10879 10881 10888 10889 10887 10887 10886 10884 10887 10889 10887 10889 10887 10886 10885
10818 10820 10822 10824 10826 10828 10829 10831 10833 10836 10838 10840 10841 10843 10845 10848 10849 10851 10853 10853 10855 10855 10855 10856 10857 10859 10861 10862 10863 10866 10869 10870 10874 10876 10876 10876 10874 10874 10878 10879 10879 10878 10878 10876 10876
10812 10814 10816 10818 10820 10822 10823 10824 10826 10829 10832 10834 10835 10837 10839 10841 10842 10844 10845 10846 10846 10846 10846 10846 10847 10849 10851 10852 10854 10857 10858 10858 10859 10864 10864 10866 10866 10864 10866 10869 10869 10868 10867 10866 10866
10805 10808 10809 10811 10813 10814 10815 10817 10820 10823 10825 10826 10828 10829 10832 10833 10834 10836 10836 10837 10837 10837 10836 10835 10837 10840 10842 10840 10845 10846 10846 10847 10847 10849 10853 10856 10855 10857 10856 10857 10858 10858 10857 10856 10856
10799 10801 10803 10804 10805 10806 10807 10810 10813 10815 10816 10817 10818 10820 10822 10823 10824 10826 10826 10827 10828 10827 10825 10824 10827 10828 10829 10828 10835 10835 10835 10834 10833 10834 10839 10842 10844 10846 10847 10847 10847 10847 10847 10846 10847
10792 10794 10795 10796 10796 10797 10800 10802 10804 10804 10805 10807 10807 10809 10811 10812 10813 10814 10816 10816 10816 10816 10814 10814 10818 10815 10816 10818 10822 10821 10822 10822 10824 10823 10824 10827 10830 10833 10834 10836 10837 10837 10835 10834 10834
10782 10784 10786 10786 10787 10789 10792 10794 10794 10794 10795 10796 10797 10798 10800 10800 10801 10802 10804 10805 10804 10805 10802 10804 10805 10802 10803 10805 10809 10809 10808 10811 10811 10811 10814 10816 10819 10821 10822 10824 10825 10824 10823 10822 10821
10773 10775 10776 10776 10776 10780 10782 10782 10783 10783 10785 10786 10785 10787 10788 10789 10789 10790 10791 10793 10794 10793 10790 10793 10792 10790 10790 10792 10795 10795 10796 10797 10798 10801 10802 10805 10806 10809 10809 10809 10810 10810 10810 10809 10807
10762 10764 10765 10765 10766 10770 10771 10770 10771 10772 10773 10773 10773 10774 10776 10777 10777 10777 10778 10779 10780 10781 10779 10780 10782 10779 10777 10777 10781 10780 10781 10782 10784 10788 10792 10793 10792 10797 10795 10795 10795 10794 10794 10796 10795
10751 10753 10754 10754 10755 10757 10759 10758 10759 10759 10761 10762 10761 10761 10763 10764 10765 10765 10766 10766 10767 10767 10767 10769 10771 10768 10765 10763 10766 10768 10767 10767 10768 10774 10778 10777 10778 10785 10782 10781 10779 10779 10778 10778 10777
10738 10739 10740 10739 10742 10744 10745 10744 10744 10746 10747 10747 10748 10748 10749 10750 10751 10752 10753 10753 10754 10754 10755 10756 10758 10758 10755 10752 10752 10756 10754 10752 10751 10757 10760 10761 10766 10768 10765 10764 10763 10762 10761 10761 10760
10723 10724 10724 10723 10727 10729 10729 10727 10727 10730 10731 10732 10733 10735 10736 10735 10736 10738 10738 10740 10740 10742 10743 10744 10745 10746 10745 10742 10740 10740 10741 10739 10738 10740 10741 10746 10747 10747 10744 10745 10746 10746 10745 10744 10742
10707 10707 10706 10705 10707 10710 10711 10709 10710 10712 10713 10714 10716 10720 10720 10721 10721 10722 10723 10724 10725 10727 10729 10730 10731 10731 10731 10730 10727 10726 10725 10724 10724 10725 10725 10730 10731 10732 10727 10727 10727 10727 10728 10728 10727
10692 10690 10688 10686 10688 10689 10689 10690 10691 10691 10695 10697 10699 10701 10703 10705 10705 10705 10708 10709 10708 10710 10713 10716 10719 10717 10717 10717 10713 10711 10709 10707 10706 10707 10707 10711 10715 10713 10711 10709 10708 10708 10707 10706 10705
10679 10675 10673 10669 10669 10669 10668 10669 10669 10670 10674 10677 10679 10681 10683 10685 10688 10691 10691 10691 10692 10692 10695 10697 10703 10703 10702 10700 10698 10696 10693 10690 10687 10689 10688 10690 10695 10692 10691 10689 10686 10688 10686 10685 10682
10661 10655 10651 10649 10648 10648 10648 10649 10649 10648 10650 10654 10658 10659 10662 10665 10669 10672 10674 10674 10675 10675 10677 10677 10684 10685 10684 10683 10681 10678 10677 10674 10671 10669 10669 10667 10671 10669 10668 10667 10666 10664 10663 10662 10660
10637 10631 10628 10625 10626 10626 10626 10627 10628 10628 10630 10633 10637 10640 10643 10646 10649 10654 10654 10656 10656 10656 10657 10656 10660 10663 10662 10660 10659 10660 10658 10655 10652 10650 10647 10648 10647 10646 10646 10646 10645 10643 10641 10638 10635
10622 10617 10614 10611 10610 10609 10608 10607 10608 10609 10609 10611 10616 10619 10621 10626 10628 10632 10635 10634 10637 10638 10638 10636 10636 10639 10638 10639 10641 10641 10639 10637 10635 10632 10628 10627 10625 10624 10623 10621 10619 10617 10615 10612 10609
10614 10610 10606 10603 10601 10598 10595 10592 10590 10591 10592 10594 10595 10596 10599 10601 10604 10606 10610 10613 10616 10618 10617 10617 10618 10618 10616 10620 10620 10619 10619 10618 10614 10610 10608 10607 10605 10603 10602 10598 10594 10591 10588 10586 10582
10606 10602 10599 10595 10592 10589 10585 10584 10581 10578 10576 10575 10576 10577 10579 10580 10582 10584 10587 10589 10592 10595 10595 10594 10594 10596 10597 10599 10596 10597 10597 10594 10592 10590 10588 10586 10585 10581 10577 10574 10571 10569 10568 10566 10564